This is the latest recevied weather packets stored in our database for station/object K5KHP. If no packets are shown the sender has not sent any weather packets the latest 10 day(s).
| Time | Temp. | Humidity | Pressure | Rain* | Wind** | Luminosity | Snow |
|---|---|---|---|---|---|---|---|
| 1777998321 | 16.67° C | 73% | 1013.5 hPa | 0 mm | - | 475 W/m² | - |
| 1777998018 | 16.67° C | 74% | 1013.6 hPa | 0 mm | - | 275 W/m² | - |
| 1777997714 | 16.67° C | 75% | 1013.5 hPa | 0 mm | - | 461 W/m² | - |
| 1777997412 | 16.11° C | 76% | 1013.6 hPa | 0 mm | - | 408 W/m² | - |
| 1777997110 | 15.56° C | 78% | 1013.5 hPa | 0 mm | - | 309 W/m² | - |
| 1777996807 | 15.56° C | 81% | 1013.4 hPa | 0 mm | - | 363 W/m² | - |
| 1777996502 | 15° C | 83% | 1013.5 hPa | 0 mm | - | 334 W/m² | - |
| 1777996199 | 15° C | 85% | 1013.3 hPa | 0 mm | - | 114 W/m² | - |
| 1777995895 | 14.44° C | 85% | 1013.5 hPa | 0 mm | - | 131 W/m² | - |
| 1777995591 | 15° C | 84% | 1013.4 hPa | 0 mm | - | 98 W/m² | - |
| 1777995290 | 15° C | 84% | 1013.5 hPa | 0 mm | - | 116 W/m² | - |
| 1777994986 | 15.56° C | 83% | 1013.1 hPa | 0 mm | - | 122 W/m² | - |
| 1777994683 | 15.56° C | 83% | 1013.3 hPa | 0 mm | - | 239 W/m² | - |
| 1777994378 | 15° C | 83% | 1013.4 hPa | 0 mm | - | 293 W/m² | - |
| 1777994073 | 15° C | 84% | 1013.1 hPa | 0 mm | - | 243 W/m² | - |
| 1777993771 | 15° C | 84% | 1013.3 hPa | 0 mm | - | 174 W/m² | - |
| 1777993468 | 14.44° C | 85% | 1013.3 hPa | 0 mm | - | 107 W/m² | - |
| 1777993167 | 14.44° C | 85% | 1013.5 hPa | 0 mm | - | 128 W/m² | - |
| 1777992866 | 13.89° C | 86% | 1013.3 hPa | 0 mm | - | 98 W/m² | - |
| 1777992564 | 13.89° C | 87% | 1013.3 hPa | 0 mm | - | 98 W/m² | - |
| 1777992261 | 13.33° C | 88% | 1013.3 hPa | 0 mm | - | 78 W/m² | - |
| 1777991958 | 12.78° C | 89% | 1013.5 hPa | 0 mm | - | 59 W/m² | - |
| 1777991656 | 12.78° C | 89% | 1013.6 hPa | 0 mm | - | 58 W/m² | - |
| 1777991353 | 12.78° C | 90% | 1013.5 hPa | 0 mm | - | 47 W/m² | - |
| 1777991050 | 12.78° C | 91% | 1013.4 hPa | 0 mm | - | 87 W/m² | - |
* Rain latest hour (hover to see other rain measurements)
** Current wind speed in m/s (hover to see current wind gust speed)